This demonstration page uses our WeatherBlox Daily Observations layout. Learn more.

Hourly Observations for July 14, 2015

Temp ( °F °C ) Dew Point ( °F °C ) Humidity (%) Winds ( mph kmh ) Pressure ( in mb ) Visibility ( mi km ) Precip ( " mm )
12:15 am 00:15 Clear 72 22.1 66 18.9 82 82 Calm 29.74 1007 10 16.0934 0 0
12:35 am 00:35 Clear 71 21.4 66 19 86 86 Calm 29.8 1009 10 16.0934 0 0
12:55 am 00:55 Clear 69 20.6 65 18.5 88 88 Calm 29.8 1009 10 16.0934 0 0
1:15 am 01:15 Clear 69 20.5 64 18 86 86 Calm 29.8 1009 10 16.0934 0 0
1:35 am 01:35 Clear 68 20.1 64 17.7 86 86 Calm 29.8 1009 10 16.0934 0 0
1:55 am 01:55 Clear 67 19.4 64 17.5 89 89 Calm 29.8 1009 10 16.0934 0 0
2:15 am 02:15 Clear 68 19.8 64 18 89 89 Calm 29.8 1009 10 16.0934 0 0
2:35 am 02:35 Clear 68 20.2 65 18.5 90 90 Calm 29.8 1009 10 16.0934 0 0
2:55 am 02:55 Clear 71 21.5 66 18.7 84 84 S 3 6 29.77 1008 10 16.0934 0 0
3:15 am 03:15 Clear 71 21.7 65 18.3 81 81 SSW 6 9 29.77 1008 10 16.0934 0 0
3:35 am 03:35 Clear 70 21 64 18 83 83 SW 3 6 29.8 1009 10 16.0934 0 0
3:55 am 03:55 Clear 69 20.8 64 18 84 84 Calm 29.77 1008 10 16.0934 0 0
4:15 am 04:15 Clear 69 20.3 64 17.9 86 86 W 5 7 29.77 1008 10 16.0934 0 0
4:35 am 04:35 Clear 69 20.5 64 17.5 83 83 Calm 29.77 1008 10 16.0934 0 0
4:55 am 04:55 Clear 67 19.5 64 17.5 88 88 W 3 6 29.8 1009 10 16.0934 0 0
5:15 am 05:15 Clear 68 19.9 64 17.9 88 88 W 7 11 29.8 1009 10 16.0934 0 0
5:35 am 05:35 Clear 68 20 64 17.7 87 87 Calm 29.8 1009 10 16.0934 0 0
5:55 am 05:55 Clear 68 20.2 64 17.5 85 85 Calm 29.8 1009 10 16.0934 0 0
6:15 am 06:15 Clear 68 20 64 17.5 86 86 W 3 6 29.8 1009 10 16.0934 0 0
6:35 am 06:35 Sunny 67 19.5 64 17.5 88 88 Calm 29.8 1009 10 16.0934 0 0
6:55 am 06:55 Sunny 69 20.6 64 17.5 83 83 Calm 29.8 1009 10 16.0934 0 0
7:15 am 07:15 Sunny 69 20.5 65 18.1 86 86 Calm 29.83 1010 10 16.0934 0 0
7:35 am 07:35 Sunny 71 21.4 65 18.4 83 83 Calm 29.83 1010 10 16.0934 0 0
7:55 am 07:55 Sunny 71 21.8 66 19 84 84 Calm 29.77 1008 10 16.0934 0 0
8:15 am 08:15 Sunny 73 22.8 66 18.9 79 79 Calm 29.77 1008 10 16.0934 0 0
8:35 am 08:35 Sunny 75 24 66 18.7 72 72 Calm 29.77 1008 10 16.0934 0 0
8:55 am 08:55 Sunny 77 25.1 66 19 69 69 Calm 29.77 1008 10 16.0934 0 0
9:15 am 09:15 Sunny 78 25.8 69 20.8 74 74 WNW 3 6 29.74 1007 10 16.0934 0 0
9:35 am 09:35 Sunny 80 26.5 68 19.9 67 67 Calm 29.74 1007 10 16.0934 0 0
9:55 am 09:55 Sunny 80 26.5 69 20.7 71 71 Calm 29.74 1007 10 16.0934 0 0
10:15 am 10:15 Sunny 81 27.2 68 20.2 66 66 Calm 29.74 1007 10 16.0934 0 0
10:35 am 10:35 Sunny 83 28.2 69 20.8 64 64 SSE 6 9 29.74 1007 10 16.0934 0 0
10:55 am 10:55 Sunny 84 28.7 69 20.7 62 62 Calm 29.74 1007 10 16.0934 0 0
11:15 am 11:15 Sunny 84 29.1 71 21.5 64 64 Calm 29.74 1007 10 16.0934 0 0
11:35 am 11:35 Sunny 85 29.7 71 21.7 62 62 Calm 29.71 1006 7 11.26538 0 0
11:55 am 11:55 Sunny 87 30.4 71 21.5 59 59 Calm 29.71 1006 10 16.0934 0 0
12:15 pm 12:15 Sunny 87 30.8 70 21.2 57 57 Calm 29.71 1006 10 16.0934 0 0
12:35 pm 12:35 Sunny 89 31.7 69 20.6 52 52 ESE 3 6 29.71 1006 10 16.0934 0 0
12:55 pm 12:55 Sunny 89 31.8 70 21.1 53 53 SE 3 6 29.71 1006 10 16.0934 0 0
1:15 pm 13:15 Sunny 90 32.3 70 21.2 52 52 SSE 3 6 29.74 1007 10 16.0934 0 0
1:35 pm 13:35 Sunny 91 33 66 19.1 44 44 SSE 5 7 29.74 1007 7 11.26538 0 0
1:55 pm 13:55 Sunny 92 33.3 64 17.8 40 40 SSE 5 7 29.74 1007 10 16.0934 0 0
2:15 pm 14:15 Sunny 92 33.2 64 18 40 40 SSE 5 7 29.71 1006 10 16.0934 0 0
2:35 pm 14:35 Sunny 92 33.4 66 19.1 43 43 SSE 5 7 29.71 1006 10 16.0934 0 0
2:55 pm 14:55 Sunny 92 33.6 67 19.4 43 43 SSE 5 7 29.68 1005 10 16.0934 0 0
3:15 pm 15:15 Sunny 94 34.3 60 15.7 33 33 S 6 9 29.68 1005 10 16.0934 0 0
3:35 pm 15:35 Sunny 94 34.4 62 16.5 34 34 SSE 7 11 29.68 1005 10 16.0934 0 0
3:55 pm 15:55 Sunny 94 34.5 62 16.7 35 35 SSE 6 9 29.65 1004 10 16.0934 0 0
4:15 pm 16:15 Sunny 94 34.7 59 15.2 31 31 SE 5 7 29.65 1004 10 16.0934 0 0
4:35 pm 16:35 Sunny 93 34 67 19.3 42 42 E 6 9 29.65 1004 10 16.0934 0 0
4:55 pm 16:55 Sunny 93 33.7 68 19.8 44 44 E 9 15 29.65 1004 10 16.0934 0 0
5:15 pm 17:15 Sunny 92 33.6 68 20.2 45 45 E 9 15 29.65 1004 10 16.0934 0 0
5:35 pm 17:35 Sunny 92 33.5 69 20.3 46 46 E 9 15 29.65 1004 10 16.0934 0 0
5:55 pm 17:55 Sunny 92 33.2 69 20.8 48 48 E 10 17 29.62 1003 10 16.0934 0 0
6:15 pm 18:15 Sunny 92 33.2 69 20.7 48 48 E 9 15 29.62 1003 10 16.0934 0 0
6:35 pm 18:35 Sunny 90 32.2 70 21.1 52 52 E 12 19 29.65 1004 10 16.0934 0 0
6:55 pm 18:55 Sunny 89 31.6 70 21.2 54 54 E 9 15 29.65 1004 10 16.0934 0 0
7:15 pm 19:15 Sunny 87 30.7 73 23 64 64 SE 5 7 29.65 1004 10 16.0934 0 0
7:35 pm 19:35 Sunny 86 30.1 74 23.6 68 68 ESE 6 9 29.65 1004 10 16.0934 0 0
7:55 pm 19:55 Sunny 84 29 74 23.6 73 73 ESE 7 11 29.65 1004 10 16.0934 0 0
8:15 pm 20:15 Sunny 83 28.6 71 21.8 67 67 ESE 10 17 29.65 1004 10 16.0934 0 0
8:35 pm 20:35 Sunny 82 27.5 73 22.7 75 75 ESE 9 15 29.68 1005 10 16.0934 0 0
8:55 pm 20:55 Sunny 81 27.4 72 22.1 73 73 ESE 7 11 29.71 1006 10 16.0934 0 0
9:15 pm 21:15 Clear 81 27.1 72 22 74 74 ESE 8 13 29.71 1006 10 16.0934 0 0
9:35 pm 21:35 Clear 80 26.8 70 21.3 72 72 SE 9 15 29.71 1006 10 16.0934 0 0
9:55 pm 21:55 Clear 79 26 70 21.3 75 75 SE 7 11 29.71 1006 10 16.0934 0 0
10:15 pm 22:15 Clear 77 25.1 70 21.2 79 79 ESE 7 11 29.77 1008 10 16.0934 0 0
10:35 pm 22:35 Clear 77 25.2 69 20.5 75 75 SE 6 9 29.8 1009 10 16.0934 0 0
10:55 pm 22:55 Clear 78 25.7 67 19.2 67 67 SE 7 11 29.77 1008 10 16.0934 0 0
11:15 pm 23:15 Clear 78 25.4 65 18.6 66 66 SE 6 9 29.8 1009 10 16.0934 0 0
11:35 pm 23:35 Clear 77 25.1 64 18 65 65 SE 7 11 29.77 1008 10 16.0934 0 0
11:55 pm 23:55 Clear 76 24.2 65 18.4 70 70 E 6 9 29.8 1009 10 16.0934 0 0

Powered by AerisWeather